(119) Althaea
ephemeris date magn radius delta ra dec elong phase
Today25 Aug 202613.22.605 AU2.254 AU16h37m-15°46'98.6°22.6°
Opposition16 Oct 202710.92.372 AU1.376 AU01h24m+09°03'179.6°0.2°
(119) Althaea - 2026-08-25
astro.vanbuitenen.nl


 
-1 year
-1 month
-1 day
Now
+1 day
+1 month
+1 year

The interactive orbit chart above shows the body's path through the solar system and its position at the given date. Green and blue lines are shown perpendicular to the ecliptic plane: Green if the path is above the ecliptic plane, blue if it is below. (Left-click and drag to rotate the view; Right-click and drag to move the view; Use scroll wheel to zoom in our out.)

The orbital elements of Althaea are:

            e (Eccentricity)                : 0.0817258
            a (Semimajor axis)              : 2.5812783
            i (Inclination)                 : 5.78624
            Ω (Longitude of ascending node) : 203.61091
            ω (Argument of perihelion)      : 170.23459
            M (Mean anomaly)                : 250.01801
            Epoch                           : 2026 Jun 09

            L (Longitude of perihelion)     : 193.89430
            B (Latitude of perihelion)      : 0.97981
            P (Orbital period in years)     : 4.15            
        

The light curve chart below shows the estimated development of the minor planet's magnitude.


The all-sky chart below shows the path of the minor planet over the same period as the light curve. The current position is marked yellow.





The following chart shows the path of the minor planet in the next few days. The field of view is optimized for (~10x50) binoculars and finderscopes.




Ephemerides:
Date       Time       RA (2000)    DEC (2000)    delta   radius  elong  phase   PA    magn
2026-08-25 00:00 UT   16 37 39.7   -15 46 31     2.254    2.605   98.6   22.6    99   13.2 
2026-08-25 18:09 UT   16 38 12.9   -15 48 49     2.263    2.604   98.0   22.6    99   13.3 
2026-08-26 00:00 UT   16 38 23.8   -15 49 34     2.266    2.604   97.8   22.6    99   13.3 
2026-08-27 00:00 UT   16 39 09.1   -15 52 38     2.278    2.603   97.0   22.7    99   13.3 
2026-08-28 00:00 UT   16 39 55.6   -15 55 43     2.290    2.602   96.3   22.7    99   13.3 
2026-08-29 00:00 UT   16 40 43.3   -15 58 49     2.302    2.601   95.5   22.7    98   13.3 
2026-08-30 00:00 UT   16 41 32.2   -16 01 57     2.314    2.600   94.7   22.8    98   13.3 
2026-08-31 00:00 UT   16 42 22.3   -16 05 05     2.326    2.599   94.0   22.8    98   13.3 
2026-09-01 00:00 UT   16 43 13.5   -16 08 13     2.338    2.599   93.2   22.8    98   13.3 
2026-09-02 00:00 UT   16 44 05.9   -16 11 22     2.350    2.598   92.5   22.8    98   13.3 
2026-09-03 00:00 UT   16 44 59.4   -16 14 32     2.362    2.597   91.8   22.8    98   13.3 
2026-09-04 00:00 UT   16 45 54.0   -16 17 42     2.374    2.596   91.0   22.9    97   13.4 
2026-09-05 00:00 UT   16 46 49.7   -16 20 53     2.386    2.595   90.3   22.9    97   13.4 
2026-09-06 00:00 UT   16 47 46.6   -16 24 03     2.398    2.594   89.5   22.9    97   13.4 
2026-09-07 00:00 UT   16 48 44.5   -16 27 14     2.410    2.593   88.8   22.9    97   13.4 
2026-09-08 00:00 UT   16 49 43.4   -16 30 24     2.422    2.592   88.1   22.9    97   13.4 
2026-09-09 00:00 UT   16 50 43.5   -16 33 35     2.434    2.592   87.4   22.8    97   13.4 
2026-09-10 00:00 UT   16 51 44.6   -16 36 45     2.447    2.591   86.6   22.8    96   13.4 
2026-09-11 00:00 UT   16 52 46.7   -16 39 54     2.459    2.590   85.9   22.8    96   13.4 
2026-09-12 00:00 UT   16 53 49.8   -16 43 03     2.471    2.589   85.2   22.8    96   13.4 
2026-09-13 00:00 UT   16 54 54.0   -16 46 12     2.483    2.588   84.5   22.8    96   13.4 
2026-09-14 00:00 UT   16 55 59.1   -16 49 19     2.495    2.587   83.8   22.7    96   13.5 
2026-09-15 00:00 UT   16 57 05.3   -16 52 26     2.507    2.586   83.1   22.7    96   13.5 
2026-09-16 00:00 UT   16 58 12.4   -16 55 32     2.518    2.585   82.4   22.7    95   13.5 
2026-09-17 00:00 UT   16 59 20.4   -16 58 37     2.530    2.585   81.7   22.6    95   13.5 
2026-09-18 00:00 UT   17 00 29.4   -17 01 41     2.542    2.584   81.0   22.6    95   13.5 
2026-09-19 00:00 UT   17 01 39.3   -17 04 43     2.554    2.583   80.3   22.5    95   13.5 
2026-09-20 00:00 UT   17 02 50.1   -17 07 44     2.566    2.582   79.6   22.5    95   13.5 
2026-09-21 00:00 UT   17 04 01.8   -17 10 43     2.578    2.581   79.0   22.4    94   13.5 
2026-09-22 00:00 UT   17 05 14.4   -17 13 41     2.590    2.580   78.3   22.4    94   13.5 
2026-09-23 00:00 UT   17 06 27.9   -17 16 37     2.601    2.579   77.6   22.3    94   13.5 
2026-09-24 00:00 UT   17 07 42.2   -17 19 32     2.613    2.578   76.9   22.3    94   13.5 


    Terminology:
            
    delta:  distance between minor planet and earth in AU
    radius: distance between minor planet and sun in AU
    magn:   magnitude (brightness) estimate    
    ra:     right ascension in hours (24h = 360deg)
    dec:    declination in degrees
    elong:  elongation in degrees (angle sun-earth-minor planet)    
    phase:  phase angle in degrees (angle sun-minor planet-earth)        
    AU:     Astronomical Unit (mean distance between earth and sun: 149597870.7 km
    

Orbital elements provided by the MPC (Minor Planet Center).
Calculations by a modified version of AAPlus, a C# implementation of the AA+ project by PJ Naughter from the algorithms presented in the book "Astronomical Algorithms" by Jean Meeus.
NGC2000 dso catalog and star labels from VizieR as provided by the Strasbourg astronomical Data Center.
Tycho2 catalog from the ESO archive.